Back to catalog

STARLINK-11188

AliveCommunicationsVLEO
NORAD 60722·PAYLOAD·🇺🇸 United States

Launched Aug 28, 2024 from Cape Canaveral Space Force Station

Loading…

Next Passes (next 24 hours)

TLE

FreshSource: CelesTrak SupGP

Epoch: Sep 14, 2026, 13:55 UTC

1 60722C 24152C   26257.58034722  .00034496  00000+0  28428-3 0  2573
2 60722  53.1568 265.2972 0001035  80.6710 139.2533 15.69681123    10

Track STARLINK-11188 in real time with AllMySat

Download on the App Store